Terminal Aerodrome Forecast
Issued by NWS

Home | Current Version | Previous Version | Text Only | Print | Product List | Glossary On
Versions: 1 2 3 4 5 6 7 8 9 10 11 12 13 14 15 16
259
FTUS41 KGYX 280900 AAA
TAFPSM
TAF AMD
KPSM 280900Z 2809/2906 00000KT P6SM FEW250
     FM281500 19007KT P6SM SCT050
     FM290000 12004KT 6SM HZ BKN250 PROB30 2900/2904 3SM -TSRA
      OVC045CB=

USA.gov is the U.S. government's official web portal to all federal, state and local government web resources and services.